Flag for Moldova Weather past 2 weeks in Bălți, Moldova

Now
70 °F

Mild.


Feels Like: 70 °F
Forecast: 66 / 96 °F
Wind: 9 mph from North

Location: Baltsi-Leadoveni - The North of Moldova

Current Time: Aug 2, 2014 at 7:41:30 AM

Latest Report: Aug 2, 2014 at 7:00 AM


Visibility: N/A

Pressure: 29.89 "Hg

Humidity: 60%

Dew point: 55 °F

Location of BălțiLocation

Historic Weather in Bălți — Graph

°F

Bălți temperature yesterday

Maximum temperature yesterday: 88 °F (at 2:30 PM)
Minimum temperature yesterday: 68 °F (at 6:00 AM)
Average temperature yesterday: 79 °F

Past Weeks' High & Low Weather Summary

 TemperatureHumidityPressure
High88 °F (Jul 28, 3:30 PM)100% (Jul 23, 3:00 AM)30.09 "Hg (Jul 23, 3:00 AM)
Low63 °F (Jul 23, 3:00 AM)29% (Jul 29, 3:30 PM)29.77 "Hg (Jul 23, 4:00 PM)
Average73 °F65%29.93 "Hg
* Reported Jul 18 6:00 AM — Aug 2 6:30 AM, Bălți, Weather by CustomWeather, © 2014

Note: Actual official high and low records may vary slightly from our data, if they occured in-between our weather recording intervals... More about our weather records

Advertising

Bălți weather history for previous 24 hours

 ConditionsComfort  
Time TempWeatherWind HumidityBarometerVisibility
6:30 AM
Aug 2
68 °FMild.9 mph64%29.89 "HgN/A
6:00 AM70 °FMild.3 mph57%29.89 "HgN/A
5:30 AM70 °FMild.7 mph57%29.89 "HgN/A
5:00 AM70 °FMild.3 mph57%29.89 "HgN/A
4:30 AM72 °FMild.3 mph53%29.89 "HgN/A
4:00 AM70 °FMild.1 mph57%29.89 "HgN/A
3:30 AM70 °FMild.8 mph57%29.89 "HgN/A
3:00 AM70 °FMild.12 mph57%29.89 "HgN/A
2:30 AM72 °FMild.12 mph53%29.89 "HgN/A
2:00 AM73 °FMild.14 mph50%29.89 "HgN/A
1:30 AM73 °FMild.14 mph50%29.89 "HgN/A
1:00 AM75 °FMild.14 mph47%29.89 "HgN/A
12:30 AM75 °FMild.14 mph47%29.89 "HgN/A
12:00 AM75 °FMild.13 mph47%29.89 "HgN/A
11:30 PM
Aug 1
75 °FMild.12 mph47%29.89 "HgN/A
11:00 PM75 °FMild.12 mph50%29.86 "HgN/A
10:30 PM75 °FMild.10 mph50%29.86 "HgN/A
10:00 PM75 °FMild.12 mph50%29.86 "HgN/A
9:30 PM77 °FWarm.12 mph51%29.86 "HgN/A
9:00 PM77 °FWarm.12 mph51%29.86 "HgN/A
8:30 PM79 °FWarm.10 mph48%29.86 "HgN/A
8:00 PM82 °FPleasantly warm.12 mph40%29.86 "HgN/A
7:30 PM84 °FPassing clouds.12 mph37%29.86 "HgN/A
7:00 PM86 °FPassing clouds.10 mph35%29.86 "HgN/A
6:30 PM86 °FPassing clouds.12 mph33%29.86 "HgN/A
6:00 PM86 °FPassing clouds.14 mph35%29.86 "HgN/A
5:30 PM86 °FPassing clouds.13 mph35%29.86 "HgN/A
5:00 PM88 °FPassing clouds.14 mph33%29.86 "HgN/A
4:30 PM88 °FPassing clouds.15 mph29%29.86 "HgN/A
4:00 PM86 °FPassing clouds.15 mph31%29.86 "HgN/A
3:30 PM88 °FPassing clouds.13 mph29%29.86 "HgN/A
3:00 PM88 °FPassing clouds.15 mph29%29.89 "HgN/A
2:30 PM88 °FPassing clouds.16 mph31%29.89 "HgN/A
2:00 PM86 °FPassing clouds.16 mph33%29.89 "HgN/A
1:30 PM86 °FPassing clouds.14 mph33%29.89 "HgN/A
1:00 PM86 °FPassing clouds.14 mph35%29.89 "HgN/A
12:30 PM86 °FPassing clouds.14 mph40%29.89 "HgN/A
12:00 PM84 °FPassing clouds.8 mph48%29.89 "HgN/A
11:30 AM84 °FPassing clouds.8 mph48%29.89 "HgN/A
11:00 AM82 °FSunny.8 mph51%29.89 "Hg10 mi
10:30 AM82 °FSunny.7 mph48%29.89 "Hg10 mi
10:00 AM81 °FSunny.7 mph51%29.89 "Hg10 mi
9:30 AM79 °FSunny.3 mph54%29.89 "Hg10 mi
9:00 AM79 °FSunny.1 mph51%29.89 "Hg10 mi
8:30 AM77 °FSunny.5 mph51%29.89 "Hg10 mi
8:00 AM73 °FMild.6 mph57%29.89 "HgN/A
7:30 AM72 °FMild.5 mph61%29.89 "HgN/A
7:00 AM68 °FMild.5 mph64%29.89 "HgN/A
Weather by CustomWeather, © 2014

See weather overviewHow to use our weather pages